EW1145 Weather Reports


Display with metric or nautical units.
time (UTC)temp
F
wind
direction
speed
MPH
gust
MPH
rain 1hr
in
rain 24hr
in
rain mn
in
humidity
%
barometer
mb
20260901220027 67 216 0.0 4.0 0.00 0.00 0.00 67 1010.4
20260901214511 67 216 0.0 1.0 0.00 0.00 0.00 69 1010.4
20260901213012 66 217 1.0 7.0 0.00 0.00 0.00 71 1010.4
20260901211509 66 196 1.0 5.0 0.00 0.00 0.00 72 1010.5
20260901210012 66 202 1.0 6.0 0.00 0.00 0.00 72 1010.5
20260901204507 66 220 0.0 5.0 0.00 0.00 0.00 72 1010.6
20260901203008 66 220 0.0 6.0 0.00 0.00 0.00 70 1010.7
20260901201507 66 221 0.0 2.0 0.00 0.00 0.00 71 1010.7
20260901200006 66 221 0.0 5.0 0.00 0.00 0.00 71 1010.7
20260901194505 66 192 0.0 4.0 0.00 0.00 0.00 71 1010.8
20260901193002 65 192 0.0 4.0 0.00 0.00 0.00 73 1010.9
20260901191601 65 192 1.0 6.0 0.00 0.00 0.00 74 1011.0
20260901190111 64 224 0.0 4.0 0.00 0.00 0.00 76 1011.1
20260901184600 64 225 0.0 5.0 0.00 0.00 0.00 77 1011.3
20260901183059 64 82 0.0 6.0 0.00 0.00 0.00 76 1011.3
20260901181603 64 203 3.0 7.0 0.00 0.00 0.00 73 1011.3
20260901180059 64 209 0.0 6.0 0.00 0.00 0.00 75 1011.3
20260901174559 63 196 0.0 6.0 0.00 0.00 0.00 78 1011.3
20260901173052 63 205 0.0 1.0 0.00 0.00 0.00 79 1011.3
20260901171605 62 205 0.0 0.0 0.00 0.00 0.00 82 1011.3
20260901170055 61 205 0.0 4.0 0.00 0.00 0.00 82 1011.3
20260901164553 60 190 0.0 2.0 0.00 0.00 0.00 84 1011.3
20260901163047 60 236 0.0 1.0 0.00 0.00 0.00 85 1011.4
20260901161547 60 236 0.0 0.0 0.00 0.00 0.00 85 1011.3
20260901160046 59 236 0.0 4.0 0.00 0.00 0.00 86 1011.3
20260901154546 59 236 0.0 1.0 0.00 0.00 0.00 86 1011.5
20260901153052 58 236 0.0 1.0 0.00 0.00 0.00 87 1011.5
20260901151544 58 236 0.0 0.0 0.00 0.00 0.00 87 1011.5
20260901150043 58 236 0.0 0.0 0.00 0.00 0.00 88 1011.3
20260901144542 58 236 0.0 0.0 0.00 0.00 0.00 88 1011.2
20260901143041 58 236 0.0 0.0 0.00 0.00 0.00 88 1011.1
20260901141541 57 236 0.0 0.0 0.00 0.00 0.00 88 1011.0
20260901140039 57 236 0.0 0.0 0.00 0.00 0.00 88 1011.0
20260901134541 57 236 0.0 0.0 0.00 0.00 0.00 88 1010.9
20260901133037 57 236 0.0 0.0 0.00 0.00 0.00 88 1010.8
20260901131539 57 236 0.0 0.0 0.00 0.00 0.00 89 1010.8
20260901130037 57 236 0.0 0.0 0.00 0.00 0.00 88 1010.7
20260901124536 57 236 0.0 0.0 0.00 0.00 0.00 89 1010.7
20260901123038 56 236 0.0 0.0 0.00 0.00 0.00 90 1010.6
20260901121537 56 236 0.0 0.0 0.00 0.00 0.00 89 1010.7
20260901120033 56 236 0.0 0.0 0.00 0.00 0.00 91 1010.5
20260901114545 55 236 0.0 0.0 0.00 0.00 0.00 91 1010.6
20260901113030 55 236 0.0 0.0 0.00 0.00 0.00 91 1010.6
20260901111528 55 236 0.0 0.0 0.00 0.00 0.00 91 1010.4
20260901110027 55 236 0.0 0.0 0.00 0.00 0.00 91 1010.3
20260901104525 55 236 0.0 0.0 0.00 0.00 0.00 90 1010.1
20260901103023 56 236 0.0 0.0 0.00 0.00 0.00 89 1010.0
20260901101521 56 236 0.0 0.0 0.00 0.00 0.00 88 1010.1
20260901100021 57 236 0.0 0.0 0.00 0.00 0.00 88 1010.1
20260901094522 57 236 0.0 0.0 0.00 0.00 0.00 88 1010.0
20260901093015 57 236 0.0 0.0 0.00 0.00 0.00 87 1009.7
20260901091514 57 236 0.0 0.0 0.00 0.00 0.00 86 1009.6
20260901090013 58 236 0.0 0.0 0.00 0.00 0.00 85 1009.6
20260901084511 58 236 0.0 0.0 0.00 0.00 0.00 84 1009.5
20260901083009 59 236 0.0 1.0 0.00 0.00 0.00 84 1009.6
20260901081507 59 235 0.0 0.0 0.00 0.00 0.00 83 1009.6
20260901080006 60 235 0.0 0.0 0.00 0.00 0.00 82 1009.4
20260901074502 60 235 0.0 0.0 0.00 0.00 0.00 81 1009.3
20260901073102 61 236 0.0 0.0 0.00 0.00 0.00 79 1009.2
20260901071558 61 236 0.0 0.0 0.00 0.00 0.00 78 1009.1
20260901070055 61 236 0.0 0.0 0.00 0.00 0.00 78 1008.7
20260901064555 62 236 0.0 0.0 0.00 0.00 0.00 78 1008.7
20260901063054 62 236 0.0 0.0 0.00 0.00 0.00 76 1008.4
20260901061554 63 236 0.0 0.0 0.00 0.00 0.00 75 1008.3
20260901060053 64 236 0.0 0.0 0.00 0.00 0.00 74 1008.0
20260901054553 65 236 0.0 0.0 0.00 0.00 0.00 73 1007.9
20260901053054 65 236 0.0 0.0 0.00 0.00 0.00 71 1007.9
20260901051558 67 236 0.0 0.0 0.00 0.00 0.00 69 1007.8
20260901050052 68 236 0.0 0.0 0.00 0.00 0.00 67 1007.8
20260901044552 68 236 0.0 0.0 0.00 0.00 0.00 66 1007.8
20260901043054 69 236 0.0 0.0 0.00 0.00 0.00 65 1007.6
20260901041550 70 235 0.0 3.0 0.00 0.00 0.00 62 1007.5
20260901040109 72 350 0.0 2.0 0.00 0.00 0.00 59 1007.0
20260901034549 73 266 0.0 0.0 0.00 0.00 0.00 57 1006.9
20260901033053 74 266 0.0 5.0 0.00 0.00 0.00 55 1006.5
20260901031549 75 299 0.0 4.0 0.00 0.00 0.00 53 1006.2
20260901030048 77 274 0.0 0.0 0.00 0.00 0.00 51 1006.4
20260901024547 78 257 0.0 6.0 0.00 0.00 0.00 48 1006.4
20260901023046 79 44 0.0 3.0 0.00 0.00 0.00 45 1006.2
20260901021546 80 44 0.0 0.0 0.00 0.00 0.00 42 1006.1
20260901020045 82 44 0.0 0.0 0.00 0.00 0.00 37 1006.0
20260901014546 83 44 0.0 0.0 0.00 0.00 0.00 33 1006.1
20260901013103 84 44 0.0 0.0 0.00 0.00 0.00 29 1006.0
20260901011543 85 44 0.0 2.0 0.00 0.00 0.00 30 1006.1
20260901010043 86 44 0.0 1.0 0.00 0.00 0.00 27 1006.1
20260901004541 87 44 0.0 0.0 0.00 0.00 0.00 25 1006.0
20260901003039 85 74 0.0 3.0 0.00 0.00 0.00 26 1006.1
20260901001538 85 96 0.0 1.0 0.00 0.00 0.00 27 1006.2
20260901000037 86 121 0.0 3.0 0.00 0.00 0.00 26 1006.2
20260831234544 85 59 0.0 3.0 0.00 0.00 0.00 28 1006.3
20260831233033 86 57 0.0 2.0 0.00 0.00 0.00 27 1006.4
20260831231532 86 57 0.0 3.0 0.00 0.00 0.00 27 1006.5
20260831230028 85 56 0.0 3.0 0.00 0.00 0.00 29 1006.7
20260831224528 85 107 0.0 3.0 0.00 0.00 0.00 31 1006.9
20260831223026 84 168 0.0 5.0 0.00 0.00 0.00 33 1006.9
20260831221520 84 202 0.0 6.0 0.00 0.00 0.00 35 1007.1